Location: La Fredeussais
(48.1780°N, 1.3980°W)
Time: 08:38:39
(UTC+00:00)

STARLINK-2732 - Pass Details

Date: 30 July 2021
Orbit: 546 x 548 km, 53.1° (Epoch: 19 September)

Event Time Altitude Azimuth Distance (km) Brightness Sun altitude
Rises 21:30:13 0° 287° (WNW) 2,719 8.2 -14.4°
Reaches altitude 10° 21:33:24 10° 261° (W) 1,820 6.7 -14.7°
Maximum altitude 21:35:30 14° 230° (SW) 1,589 6.0 -14.9°
Enters shadow 21:37:36 10° 199° (SSW) 1,813 5.9 -15.1°
